CLH252 LIRQ-EDDF

Flight info

Callsign CLH252
Flight time 1h 22m
Altitude 18000
Route OKMAP Q125 OMAKU/N0466F320 DCT BOA DCT SUMIR DCT UNIMI L12 MOGTI Q163 HAFUN/N0429F240 Q163 ETASA T163 SPESA SPESA5C
Aircraft A319/M-SDE3FGHIRWY/LB1

Departure

Time 2026-05-08 18:19
Airport Florence Airport, Peretola (LIRQ)

Arrival

Time 2026-05-08 19:41
Airport Frankfurt Main Airport (EDDF)
Time Latitude Longitude Altitude Speed Heading
2026-05-08 17:39 43.80302 11.20042 133 ft 0 kts 86°
2026-05-08 17:41 43.80302 11.20041 133 ft 0 kts 86°
2026-05-08 18:13 43.80302 11.20043 132 ft 2 kts 86°
2026-05-08 18:14 43.80312 11.20074 133 ft 4 kts 57°
2026-05-08 18:14 43.80340 11.20097 133 ft 6 kts 12°
2026-05-08 18:14 43.80385 11.20096 133 ft 7 kts
2026-05-08 18:14 43.80435 11.20104 133 ft 8 kts 351°
2026-05-08 18:15 43.80472 11.20051 133 ft 8 kts 278°
2026-05-08 18:15 43.80437 11.19987 132 ft 10 kts 225°
2026-05-08 18:15 43.80408 11.19935 135 ft 2 kts 242°
2026-05-08 18:15 43.80412 11.19895 125 ft 7 kts 300°
2026-05-08 18:16 43.80423 11.19881 125 ft 0 kts 319°
2026-05-08 18:16 43.80429 11.19874 125 ft 3 kts 319°
2026-05-08 18:16 43.80434 11.19867 127 ft 0 kts 319°
2026-05-08 18:17 43.80439 11.19861 127 ft 4 kts 319°
2026-05-08 18:17 43.80474 11.19820 121 ft 8 kts 319°
2026-05-08 18:18 43.80528 11.19779 125 ft 9 kts 10°
2026-05-08 18:18 43.80563 11.19828 126 ft 8 kts 49°
2026-05-08 18:18 43.80751 11.20119 135 ft 82 kts 48°
2026-05-08 18:18 43.81307 11.20973 180 ft 147 kts 47°
2026-05-08 18:19 43.82009 11.22022 848 ft 148 kts 41°
2026-05-08 18:19 43.82962 11.22527 1549 ft 149 kts
2026-05-08 18:19 43.83954 11.22185 2252 ft 150 kts 327°
2026-05-08 18:19 43.84630 11.21118 2833 ft 151 kts 292°
2026-05-08 18:20 43.84732 11.19684 3309 ft 153 kts 256°
2026-05-08 18:20 43.84286 11.18356 3826 ft 152 kts 240°
2026-05-08 18:20 43.83778 11.17064 4317 ft 156 kts 246°
2026-05-08 18:20 43.83727 11.15487 4545 ft 179 kts 291°
2026-05-08 18:21 43.84605 11.14198 4744 ft 200 kts 338°
2026-05-08 18:21 43.86037 11.14190 4960 ft 221 kts 22°
2026-05-08 18:21 43.87313 11.15427 5483 ft 229 kts 43°
2026-05-08 18:21 43.88412 11.17025 6311 ft 230 kts 48°
2026-05-08 18:22 43.89472 11.18704 7077 ft 232 kts 49°
2026-05-08 18:22 43.90546 11.20398 7821 ft 236 kts 48°
2026-05-08 18:22 43.91656 11.22094 8565 ft 239 kts 47°
2026-05-08 18:22 43.92799 11.23792 9330 ft 242 kts 46°
2026-05-08 18:23 43.93970 11.25496 10095 ft 246 kts 45°
2026-05-08 18:23 43.95355 11.26909 10729 ft 253 kts 27°
2026-05-08 18:23 43.97066 11.27837 11014 ft 276 kts 18°
2026-05-08 18:23 43.98959 11.28744 11290 ft 300 kts 18°
2026-05-08 18:24 44.00980 11.29709 11533 ft 323 kts 18°
2026-05-08 18:24 44.03210 11.30775 11741 ft 347 kts 19°
2026-05-08 18:24 44.05527 11.32051 11922 ft 368 kts 26°
2026-05-08 18:24 44.07825 11.33722 12495 ft 375 kts 27°
2026-05-08 18:25 44.10153 11.35406 13187 ft 379 kts 27°
2026-05-08 18:25 44.12579 11.36866 13877 ft 382 kts 17°
2026-05-08 18:25 44.15179 11.37666 14475 ft 385 kts
2026-05-08 18:25 44.17828 11.37766 15054 ft 388 kts 355°
2026-05-08 18:26 44.20506 11.37222 15645 ft 391 kts 348°
2026-05-08 18:26 44.23194 11.36559 16245 ft 394 kts 348°
2026-05-08 18:26 44.25906 11.35894 16834 ft 397 kts 348°
2026-05-08 18:26 44.28639 11.35225 17428 ft 401 kts 348°
2026-05-08 18:27 44.31398 11.34549 18019 ft 404 kts 348°
2026-05-08 18:27 44.33278 11.34088 18393 ft 407 kts 347°
2026-05-08 18:27 44.36986 11.33180 19034 ft 411 kts 348°
2026-05-08 18:27 44.39851 11.32479 19501 ft 414 kts 348°
2026-05-08 18:28 44.42663 11.31788 19956 ft 417 kts 347°
2026-05-08 18:28 44.45533 11.31081 20422 ft 421 kts 347°
2026-05-08 18:28 44.48424 11.30367 20875 ft 423 kts 347°
2026-05-08 18:28 44.51334 11.29650 21326 ft 426 kts 347°
2026-05-08 18:29 44.54290 11.29150 21760 ft 431 kts 355°
2026-05-08 18:29 44.57307 11.29202 22193 ft 435 kts 359°
2026-05-08 18:29 44.60339 11.29327 22612 ft 438 kts 359°
2026-05-08 18:29 44.63395 11.29447 23036 ft 441 kts 359°
2026-05-08 18:30 44.66473 11.29561 23465 ft 443 kts 359°
2026-05-08 18:30 44.69561 11.29680 23838 ft 445 kts 359°
2026-05-08 18:30 44.72663 11.29803 24199 ft 447 kts 358°
2026-05-08 18:30 44.75776 11.29926 24561 ft 448 kts 358°
2026-05-08 18:31 44.78900 11.30050 24933 ft 450 kts 358°
2026-05-08 18:31 44.82034 11.30172 25278 ft 451 kts 358°
2026-05-08 18:31 44.85179 11.30295 25625 ft 453 kts 358°
2026-05-08 18:31 44.88336 11.30419 25944 ft 455 kts 358°
2026-05-08 18:32 44.91505 11.30545 26265 ft 457 kts 358°
2026-05-08 18:32 44.94686 11.30670 26571 ft 458 kts 358°
2026-05-08 18:32 44.97879 11.30793 26877 ft 460 kts 358°
2026-05-08 18:32 45.01090 11.30915 27178 ft 462 kts 358°
2026-05-08 18:33 45.04308 11.31040 27462 ft 464 kts 358°
2026-05-08 18:33 45.07499 11.31169 27712 ft 467 kts 358°
2026-05-08 18:33 45.10757 11.31303 28013 ft 468 kts 358°
2026-05-08 18:33 45.14008 11.31437 28420 ft 467 kts 358°
2026-05-08 18:34 45.17252 11.31567 28846 ft 466 kts 358°
2026-05-08 18:34 45.20484 11.31694 29278 ft 464 kts 358°
2026-05-08 18:34 45.23715 11.31819 29681 ft 465 kts 358°
2026-05-08 18:34 45.26949 11.31943 30044 ft 465 kts 358°
2026-05-08 18:35 45.30184 11.32070 30396 ft 465 kts 358°
2026-05-08 18:35 45.33409 11.32199 30778 ft 463 kts 357°
2026-05-08 18:35 45.36622 11.32328 31173 ft 461 kts 357°
2026-05-08 18:35 45.39822 11.32459 31573 ft 459 kts 357°
2026-05-08 18:36 45.43014 11.32590 31966 ft 458 kts 357°
2026-05-08 18:36 45.46201 11.32721 32305 ft 458 kts 357°
2026-05-08 18:36 45.49383 11.32851 32691 ft 457 kts 357°
2026-05-08 18:36 45.52553 11.32980 33094 ft 455 kts 356°
2026-05-08 18:37 45.55708 11.33107 33501 ft 453 kts 356°
2026-05-08 18:37 45.57829 11.33193 33777 ft 451 kts 356°
2026-05-08 18:37 45.60957 11.33321 34191 ft 449 kts 356°
2026-05-08 18:37 45.64086 11.33448 34465 ft 449 kts 356°
2026-05-08 18:38 45.67167 11.33572 34724 ft 450 kts 356°
2026-05-08 18:38 45.70295 11.33698 34984 ft 450 kts 356°
2026-05-08 18:38 45.73434 11.33827 35224 ft 451 kts 356°
2026-05-08 18:38 45.76570 11.33957 35463 ft 451 kts 356°
2026-05-08 18:39 45.79710 11.34084 35662 ft 452 kts 357°
2026-05-08 18:39 45.82857 11.34208 35850 ft 453 kts 357°
2026-05-08 18:39 45.86014 11.34331 36013 ft 454 kts 357°
2026-05-08 18:39 45.89222 11.34457 36061 ft 456 kts 357°
2026-05-08 18:40 45.95523 11.34716 36057 ft 456 kts 357°
2026-05-08 18:40 46.01869 11.34983 36066 ft 457 kts 357°
2026-05-08 18:41 46.08239 11.35246 36058 ft 458 kts 357°
2026-05-08 18:41 46.14610 11.35503 36048 ft 458 kts 357°
2026-05-08 18:42 46.20981 11.35756 36048 ft 458 kts 357°
2026-05-08 18:42 46.27268 11.35135 36038 ft 449 kts 343°
2026-05-08 18:43 46.33182 11.32451 36041 ft 445 kts 337°
2026-05-08 18:43 46.39061 11.29588 36039 ft 445 kts 337°
2026-05-08 18:44 46.44930 11.26736 36015 ft 445 kts 337°
2026-05-08 18:44 46.50793 11.23882 36036 ft 444 kts 337°
2026-05-08 18:45 46.56653 11.21015 36036 ft 445 kts 337°
2026-05-08 18:45 46.62515 11.18137 36033 ft 445 kts 337°
2026-05-08 18:46 46.68384 11.15247 36026 ft 446 kts 337°
2026-05-08 18:46 46.74266 11.12351 36019 ft 447 kts 337°
2026-05-08 18:47 46.80153 11.09455 36024 ft 447 kts 337°
2026-05-08 18:47 46.86039 11.06514 36044 ft 446 kts 334°
2026-05-08 18:48 46.91669 11.02781 36043 ft 444 kts 331°
2026-05-08 18:48 46.97286 10.99016 36042 ft 444 kts 332°
2026-05-08 18:49 47.02927 10.95330 36038 ft 444 kts 332°
2026-05-08 18:49 47.08565 10.91672 36049 ft 443 kts 332°
2026-05-08 18:50 47.14197 10.88001 36043 ft 443 kts 332°
2026-05-08 18:50 47.19836 10.84297 36036 ft 444 kts 332°
2026-05-08 18:51 47.25455 10.80588 36043 ft 444 kts 332°
2026-05-08 18:51 47.31088 10.76864 36054 ft 443 kts 332°
2026-05-08 18:52 47.36722 10.73131 36051 ft 444 kts 332°
2026-05-08 18:52 47.42384 10.69499 36057 ft 445 kts 334°
2026-05-08 18:53 47.48153 10.66173 36061 ft 445 kts 335°
2026-05-08 18:53 47.53934 10.62901 36064 ft 445 kts 335°
2026-05-08 18:54 47.59696 10.59565 36061 ft 444 kts 335°
2026-05-08 18:54 47.65442 10.56174 36061 ft 445 kts 334°
2026-05-08 18:55 47.74059 10.51073 36068 ft 445 kts 335°
2026-05-08 18:56 47.79812 10.47685 36064 ft 445 kts 335°
2026-05-08 18:56 47.85569 10.44280 36057 ft 445 kts 334°
2026-05-08 18:57 47.91330 10.40858 36053 ft 446 kts 335°
2026-05-08 18:57 47.97102 10.37435 36069 ft 446 kts 335°
2026-05-08 18:58 48.02873 10.33993 36066 ft 447 kts 335°
2026-05-08 18:58 48.08647 10.30537 36065 ft 447 kts 334°
2026-05-08 18:59 48.14387 10.27084 36069 ft 448 kts 334°
2026-05-08 18:59 48.20107 10.23429 36079 ft 444 kts 328°
2026-05-08 19:00 48.25077 10.18068 36067 ft 440 kts 318°
2026-05-08 19:00 48.29833 10.12300 36062 ft 440 kts 318°
2026-05-08 19:01 48.34596 10.06516 36063 ft 440 kts 318°
2026-05-08 19:01 48.39357 10.00724 36063 ft 440 kts 318°
2026-05-08 19:02 48.44115 9.94915 36073 ft 440 kts 318°
2026-05-08 19:02 48.48866 9.89102 36071 ft 440 kts 318°
2026-05-08 19:03 48.53617 9.83266 36070 ft 440 kts 318°
2026-05-08 19:03 48.58360 9.77421 36068 ft 440 kts 318°
2026-05-08 19:04 48.63077 9.71527 36069 ft 440 kts 316°
2026-05-08 19:04 48.65396 9.68499 35779 ft 443 kts 316°
2026-05-08 19:04 48.67719 9.65408 35055 ft 445 kts 315°
2026-05-08 19:04 48.70038 9.62294 34345 ft 445 kts 315°
2026-05-08 19:05 48.72355 9.59188 33575 ft 445 kts 315°
2026-05-08 19:05 48.74677 9.56094 32764 ft 445 kts 315°
2026-05-08 19:05 48.77002 9.53009 31977 ft 445 kts 315°
2026-05-08 19:05 48.79338 9.49918 31214 ft 446 kts 315°
2026-05-08 19:06 48.81686 9.46817 30476 ft 449 kts 315°
2026-05-08 19:06 48.84044 9.43694 29668 ft 452 kts 315°
2026-05-08 19:06 48.86409 9.40550 28815 ft 450 kts 315°
2026-05-08 19:06 48.88752 9.37433 27992 ft 447 kts 316°
2026-05-08 19:07 48.91173 9.34478 27183 ft 446 kts 322°
2026-05-08 19:07 48.93839 9.32089 26413 ft 445 kts 330°
2026-05-08 19:07 48.96602 9.29997 25648 ft 442 kts 331°
2026-05-08 19:07 48.99345 9.27915 24915 ft 439 kts 331°
2026-05-08 19:08 49.02070 9.25845 24205 ft 436 kts 331°
2026-05-08 19:08 49.04777 9.23785 23473 ft 434 kts 331°
2026-05-08 19:08 49.07470 9.21730 22651 ft 431 kts 331°
2026-05-08 19:08 49.10126 9.19698 22200 ft 422 kts 331°
2026-05-08 19:09 49.12708 9.17729 22049 ft 406 kts 331°
2026-05-08 19:09 49.15175 9.15858 22080 ft 389 kts 333°
2026-05-08 19:09 49.17664 9.14428 22088 ft 375 kts 342°
2026-05-08 19:09 49.20181 9.13638 22088 ft 367 kts 351°
2026-05-08 19:10 49.22727 9.13427 22089 ft 366 kts 359°
2026-05-08 19:10 49.25269 9.13728 22093 ft 367 kts
2026-05-08 19:10 49.27805 9.14094 21834 ft 364 kts
2026-05-08 19:10 49.30321 9.14449 21390 ft 362 kts
2026-05-08 19:11 49.32823 9.14801 20953 ft 360 kts
2026-05-08 19:11 49.35307 9.15155 20530 ft 357 kts
2026-05-08 19:11 49.37776 9.15510 20113 ft 355 kts
2026-05-08 19:11 49.40230 9.15866 19709 ft 353 kts
2026-05-08 19:12 49.42667 9.16217 19290 ft 351 kts
2026-05-08 19:12 49.45097 9.16559 18912 ft 349 kts
2026-05-08 19:12 49.47503 9.16898 18523 ft 347 kts
2026-05-08 19:12 49.49892 9.17239 18104 ft 346 kts
2026-05-08 19:13 49.52263 9.17578 17689 ft 344 kts
2026-05-08 19:13 49.54639 9.17920 17278 ft 342 kts
2026-05-08 19:13 49.57000 9.18261 16937 ft 340 kts
2026-05-08 19:13 49.59355 9.18604 16677 ft 339 kts
2026-05-08 19:14 49.61697 9.18961 16419 ft 338 kts
2026-05-08 19:14 49.63986 9.19778 16158 ft 338 kts 20°
2026-05-08 19:14 49.65979 9.21667 15851 ft 338 kts 41°
2026-05-08 19:14 49.67693 9.24136 15476 ft 336 kts 44°
2026-05-08 19:15 49.69372 9.26644 15102 ft 335 kts 44°
2026-05-08 19:15 49.71035 9.29141 14739 ft 333 kts 44°
2026-05-08 19:15 49.72690 9.31630 14372 ft 331 kts 44°
2026-05-08 19:15 49.74348 9.34099 14012 ft 330 kts 41°
2026-05-08 19:16 49.76265 9.35982 13618 ft 327 kts 21°
2026-05-08 19:16 49.78465 9.36741 13222 ft 323 kts
2026-05-08 19:16 49.80658 9.36277 12831 ft 318 kts 340°
2026-05-08 19:16 49.82590 9.34703 12447 ft 312 kts 320°
2026-05-08 19:17 49.84038 9.32264 12201 ft 305 kts 301°
2026-05-08 19:17 49.84960 9.29333 12096 ft 303 kts 292°
2026-05-08 19:17 49.85803 9.26330 12102 ft 304 kts 292°
2026-05-08 19:17 49.86647 9.23335 12037 ft 303 kts 292°
2026-05-08 19:18 49.87493 9.20349 11774 ft 302 kts 292°
2026-05-08 19:18 49.88337 9.17370 11526 ft 301 kts 292°
2026-05-08 19:18 49.89177 9.14409 11273 ft 300 kts 292°
2026-05-08 19:18 49.90013 9.11446 11025 ft 299 kts 292°
2026-05-08 19:19 49.90838 9.08506 10774 ft 295 kts 292°
2026-05-08 19:19 49.91645 9.05626 10537 ft 288 kts 292°
2026-05-08 19:19 49.92345 9.02759 10296 ft 281 kts 285°
2026-05-08 19:19 49.92892 8.99882 10133 ft 274 kts 285°
2026-05-08 19:20 49.93425 8.97093 10089 ft 265 kts 285°
2026-05-08 19:20 49.93600 8.96177 10045 ft 262 kts 285°
2026-05-08 19:20 49.94444 8.91753 9629 ft 254 kts 285°
2026-05-08 19:20 49.94943 8.89150 9359 ft 249 kts 285°
2026-05-08 19:21 49.95429 8.86596 9158 ft 244 kts 285°
2026-05-08 19:21 49.95907 8.84076 9102 ft 243 kts 285°
2026-05-08 19:21 49.96225 8.82404 9107 ft 244 kts 285°
2026-05-08 19:21 49.96867 8.79023 9110 ft 244 kts 285°
2026-05-08 19:22 49.97185 8.77346 9111 ft 244 kts 285°
2026-05-08 19:22 49.97658 8.74817 9110 ft 244 kts 283°
2026-05-08 19:22 49.97870 8.72218 9111 ft 243 kts 269°
2026-05-08 19:22 49.97684 8.69618 9111 ft 242 kts 256°
2026-05-08 19:23 49.97154 8.67132 9109 ft 243 kts 249°
2026-05-08 19:23 49.96565 8.64691 9111 ft 243 kts 249°
2026-05-08 19:23 49.95972 8.62227 9111 ft 243 kts 249°
2026-05-08 19:23 49.95381 8.59772 9111 ft 243 kts 249°
2026-05-08 19:24 49.94787 8.57315 9112 ft 243 kts 249°
2026-05-08 19:24 49.94193 8.54863 9111 ft 243 kts 249°
2026-05-08 19:24 49.93601 8.52415 9111 ft 243 kts 250°
2026-05-08 19:24 49.93012 8.49967 8922 ft 240 kts 250°
2026-05-08 19:25 49.92429 8.47543 8557 ft 240 kts 250°
2026-05-08 19:25 49.91846 8.45121 8203 ft 239 kts 250°
2026-05-08 19:25 49.91266 8.42705 7844 ft 238 kts 250°
2026-05-08 19:25 49.90687 8.40305 7590 ft 238 kts 250°
2026-05-08 19:26 49.90104 8.37901 7341 ft 238 kts 250°
2026-05-08 19:26 49.89522 8.35504 7098 ft 238 kts 250°
2026-05-08 19:26 49.88942 8.33117 6848 ft 235 kts 249°
2026-05-08 19:26 49.88368 8.30759 6606 ft 234 kts 249°
2026-05-08 19:27 49.87799 8.28415 6354 ft 232 kts 249°
2026-05-08 19:27 49.87224 8.26063 6091 ft 233 kts 249°
2026-05-08 19:27 49.86650 8.23717 5833 ft 232 kts 249°
2026-05-08 19:27 49.86081 8.21373 5575 ft 233 kts 249°
2026-05-08 19:28 49.85511 8.19019 5317 ft 233 kts 249°
2026-05-08 19:28 49.84937 8.16657 5064 ft 236 kts 249°
2026-05-08 19:28 49.84354 8.14273 4810 ft 237 kts 249°
2026-05-08 19:28 49.83768 8.11876 4550 ft 239 kts 249°
2026-05-08 19:29 49.83181 8.09470 4295 ft 238 kts 249°
2026-05-08 19:29 49.82594 8.07070 4074 ft 238 kts 249°
2026-05-08 19:29 49.82008 8.04665 4000 ft 238 kts 249°
2026-05-08 19:29 49.81420 8.02263 4004 ft 239 kts 249°
2026-05-08 19:30 49.80831 7.99855 4007 ft 239 kts 249°
2026-05-08 19:30 49.80241 7.97446 4008 ft 239 kts 249°
2026-05-08 19:30 49.79961 7.94937 4005 ft 239 kts 277°
2026-05-08 19:30 49.80553 7.92589 4003 ft 236 kts 310°
2026-05-08 19:31 49.81844 7.91093 4013 ft 233 kts 338°
2026-05-08 19:31 49.83353 7.90211 4005 ft 227 kts 343°
2026-05-08 19:31 49.84871 7.89850 4004 ft 220 kts 11°
2026-05-08 19:31 49.86244 7.90787 4009 ft 217 kts 38°
2026-05-08 19:32 49.87403 7.92285 4008 ft 217 kts 43°
2026-05-08 19:32 49.88521 7.93860 4012 ft 217 kts 46°
2026-05-08 19:32 49.89323 7.95815 4011 ft 216 kts 68°
2026-05-08 19:32 49.89834 7.98007 4013 ft 216 kts 71°
2026-05-08 19:33 49.90187 8.00258 4010 ft 216 kts 85°
2026-05-08 19:33 49.90450 8.02541 4008 ft 216 kts 73°
2026-05-08 19:33 49.90948 8.04745 4009 ft 216 kts 70°
2026-05-08 19:33 49.91484 8.06922 4010 ft 217 kts 69°
2026-05-08 19:34 49.92022 8.09109 4007 ft 217 kts 69°
2026-05-08 19:34 49.92558 8.11303 4008 ft 217 kts 70°
2026-05-08 19:34 49.93095 8.13499 4011 ft 218 kts 69°
2026-05-08 19:34 49.93630 8.15692 4009 ft 218 kts 69°
2026-05-08 19:35 49.94167 8.17892 4005 ft 217 kts 69°
2026-05-08 19:35 49.94687 8.20027 4005 ft 204 kts 69°
2026-05-08 19:35 49.95171 8.22018 4002 ft 190 kts 70°
2026-05-08 19:35 49.95620 8.23863 4030 ft 178 kts 70°
2026-05-08 19:36 49.96051 8.25639 3976 ft 173 kts 70°
2026-05-08 19:36 49.96467 8.27352 3823 ft 167 kts 69°
2026-05-08 19:36 49.96871 8.29019 3603 ft 163 kts 70°
2026-05-08 19:36 49.97269 8.30661 3407 ft 162 kts 70°
2026-05-08 19:37 49.97664 8.32292 3197 ft 161 kts 70°
2026-05-08 19:37 49.98056 8.33914 2971 ft 160 kts 70°
2026-05-08 19:37 49.98446 8.35527 2765 ft 159 kts 70°
2026-05-08 19:37 49.98833 8.37129 2543 ft 158 kts 70°
2026-05-08 19:38 49.99219 8.38727 2336 ft 157 kts 70°
2026-05-08 19:38 49.99595 8.40283 2133 ft 150 kts 69°
2026-05-08 19:38 49.99949 8.41752 1932 ft 141 kts 69°
2026-05-08 19:38 50.00284 8.43144 1747 ft 133 kts 69°
2026-05-08 19:39 50.00601 8.44462 1571 ft 129 kts 69°
2026-05-08 19:39 50.00912 8.45747 1407 ft 128 kts 69°
2026-05-08 19:39 50.01227 8.47044 1213 ft 129 kts 68°
2026-05-08 19:39 50.01539 8.48352 1056 ft 129 kts 68°
2026-05-08 19:40 50.01848 8.49675 899 ft 131 kts 68°
2026-05-08 19:40 50.02172 8.50992 692 ft 129 kts 66°
2026-05-08 19:40 50.02487 8.52301 538 ft 129 kts 67°
2026-05-08 19:40 50.02802 8.53604 381 ft 128 kts 67°
2026-05-08 19:41 50.03075 8.54759 352 ft 93 kts 69°
2026-05-08 19:41 50.03240 8.55447 354 ft 46 kts 69°
2026-05-08 19:41 50.03370 8.55768 352 ft 24 kts 39°
2026-05-08 19:41 50.03467 8.55895 358 ft 17 kts 40°
2026-05-08 19:42 50.03555 8.56011 358 ft 16 kts 39°
2026-05-08 19:42 50.03637 8.56125 364 ft 16 kts 51°
2026-05-08 19:42 50.03687 8.56285 362 ft 17 kts 68°
2026-05-08 19:42 50.03722 8.56438 364 ft 11 kts 71°
2026-05-08 19:43 50.03750 8.56550 359 ft 12 kts 69°
2026-05-08 19:43 50.03782 8.56683 361 ft 15 kts 70°
2026-05-08 19:43 50.03827 8.56873 360 ft 21 kts 69°
2026-05-08 19:43 50.03879 8.57091 361 ft 22 kts 70°
2026-05-08 19:44 50.03932 8.57313 362 ft 22 kts 69°
2026-05-08 19:44 50.03984 8.57531 360 ft 22 kts 70°
2026-05-08 19:44 50.04039 8.57759 365 ft 22 kts 70°
2026-05-08 19:44 50.04094 8.57987 360 ft 23 kts 69°
2026-05-08 19:45 50.04149 8.58217 361 ft 23 kts 69°
2026-05-08 19:45 50.04204 8.58446 362 ft 23 kts 69°
2026-05-08 19:45 50.04260 8.58679 363 ft 24 kts 70°
2026-05-08 19:45 50.04321 8.58935 360 ft 25 kts 69°
2026-05-08 19:46 50.04383 8.59193 359 ft 24 kts 70°
2026-05-08 19:46 50.04419 8.59340 359 ft 12 kts 69°
2026-05-08 19:46 50.04548 8.59468 362 ft 13 kts 356°
2026-05-08 19:47 50.04639 8.59458 361 ft 14 kts 356°
2026-05-08 19:47 50.04732 8.59423 362 ft 14 kts 340°
2026-05-08 19:47 50.04799 8.59384 360 ft 0 kts 339°
2026-05-08 19:47 50.04801 8.59382 359 ft 1 kts 339°
2026-05-08 19:48 50.04827 8.59369 360 ft 7 kts 342°
2026-05-08 19:48 50.04909 8.59370 362 ft 14 kts
2026-05-08 19:48 50.05003 8.59334 362 ft 15 kts 339°
2026-05-08 19:48 50.05078 8.59235 361 ft 15 kts 276°
2026-05-08 19:49 50.05048 8.59078 359 ft 15 kts 249°
2026-05-08 19:49 50.05010 8.58922 366 ft 16 kts 249°
2026-05-08 19:49 50.04981 8.58801 361 ft 7 kts 249°
2026-05-08 19:49 50.04940 8.58772 359 ft 6 kts 166°
2026-05-08 19:50 50.04901 8.58796 362 ft 3 kts 160°
2026-05-08 19:50 50.04897 8.58798 358 ft 0 kts 160°